Location: Willingham
(52.3167°N, 0.0667°E)
Time: 21:01:41
(UTC+00:00)

Cosmos 1470 - Pass Details

Date: 19 May 2025
Orbit: 455 x 466 km, 82.5° (Epoch: 18 June)

Event Time Altitude Azimuth Distance (km) Brightness Sun altitude
Rises 23:01:40 0° 352° (N) 2,521 8.0 -16.7°
Reaches altitude 10° 23:03:47 10° 356° (N) 1,640 6.5 -16.8°
Maximum altitude 23:07:19 58° 76° (ENE) 556 2.8 -16.9°
Enters shadow 23:08:26 38° 136° (SE) 736 3.0 -17.0°
